TimeCDT,TemperatureF,Dew PointF,Humidity,Sea Level PressureIn,VisibilityMPH,Wind Direction,Wind SpeedMPH,Gust SpeedMPH,PrecipitationIn,Events,Conditions,WindDirDegrees,DateUTC
12:54 AM,55.0,53.1,93,30.19,10.0,Calm,Calm,-,N/A,,Clear,0,2013-08-17 05:54:00
1:54 AM,54.0,52.0,93,30.20,4.0,Calm,Calm,-,N/A,,Clear,0,2013-08-17 06:54:00
2:54 AM,55.0,53.1,93,30.19,10.0,Calm,Calm,-,N/A,,Clear,0,2013-08-17 07:54:00
3:54 AM,54.0,51.1,90,30.20,10.0,Calm,Calm,-,N/A,,Clear,0,2013-08-17 08:54:00
4:54 AM,52.0,51.1,97,30.21,10.0,Calm,Calm,-,N/A,,Clear,0,2013-08-17 09:54:00
5:54 AM,52.0,51.1,97,30.22,8.0,Calm,Calm,-,N/A,,Clear,0,2013-08-17 10:54:00
6:54 AM,53.1,51.1,93,30.23,10.0,Calm,Calm,-,N/A,,Clear,0,2013-08-17 11:54:00
7:18 AM,55.4,53.6,94,30.23,9.0,Calm,Calm,-,N/A,,Partly Cloudy,0,2013-08-17 12:18:00
7:54 AM,59.0,55.9,90,30.23,10.0,Calm,Calm,-,N/A,,Clear,0,2013-08-17 12:54:00
8:54 AM,66.0,57.9,75,30.23,10.0,Calm,Calm,-,N/A,,Clear,0,2013-08-17 13:54:00
9:54 AM,72.0,57.9,61,30.22,10.0,Variable,3.5,-,N/A,,Clear,0,2013-08-17 14:54:00
10:54 AM,75.9,55.9,50,30.22,10.0,ENE,3.5,-,N/A,,Clear,60,2013-08-17 15:54:00
11:54 AM,78.1,54.0,43,30.21,10.0,SE,6.9,-,N/A,,Clear,130,2013-08-17 16:54:00
12:54 PM,79.0,54.0,42,30.20,10.0,ESE,9.2,-,N/A,,Scattered Clouds,110,2013-08-17 17:54:00
1:54 PM,79.0,53.1,40,30.18,10.0,Variable,5.8,-,N/A,,Clear,0,2013-08-17 18:54:00
2:54 PM,80.1,54.0,40,30.17,10.0,East,9.2,-,N/A,,Partly Cloudy,100,2013-08-17 19:54:00
3:54 PM,78.1,54.0,43,30.16,10.0,ESE,5.8,-,N/A,,Clear,110,2013-08-17 20:54:00
4:54 PM,77.0,53.1,43,30.15,10.0,SE,5.8,-,N/A,,Partly Cloudy,130,2013-08-17 21:54:00
5:54 PM,79.0,53.1,40,30.15,10.0,ESE,8.1,-,N/A,,Clear,120,2013-08-17 22:54:00
6:54 PM,75.9,55.9,50,30.14,10.0,ESE,9.2,-,N/A,,Partly Cloudy,120,2013-08-17 23:54:00
7:54 PM,72.0,55.9,57,30.14,10.0,SE,4.6,-,N/A,,Clear,130,2013-08-18 00:54:00
8:54 PM,69.1,55.9,63,30.13,10.0,SE,3.5,-,N/A,,Clear,140,2013-08-18 01:54:00
9:54 PM,68.0,55.9,65,30.14,10.0,SSE,3.5,-,N/A,,Clear,150,2013-08-18 02:54:00
10:54 PM,62.1,57.0,84,30.15,10.0,ENE,3.5,-,N/A,,Clear,60,2013-08-18 03:54:00
11:54 PM,57.0,55.0,93,30.15,10.0,Calm,Calm,-,N/A,,Clear,0,2013-08-18 04:54:00